Time,TemperatureF,DewpointF,PressureIn,WindDirection,WindDirectionDegrees,WindSpeedMPH,WindSpeedGustMPH,Humidity,HourlyPrecipIn,Conditions,Clouds,dailyrainin,SoftwareType,DateUTC
2013-01-23 00:00:00,5.4,1.1,30.07,WNW,288,0.0,4.0,82,0.00,,,0.00,Wunderground v.1.13,2013-01-23 05:00:00,
2013-01-23 00:04:00,5.4,1.4,30.07,WSW,256,2.0,4.0,83,0.00,,,0.00,Wunderground v.1.13,2013-01-23 05:04:00,
2013-01-23 00:06:00,5.4,1.4,30.07,West,280,5.0,6.0,83,0.00,,,0.00,Wunderground v.1.13,2013-01-23 05:06:00,
2013-01-23 00:07:00,5.4,1.1,30.07,NNW,332,1.0,6.0,82,0.00,,,0.00,Wunderground v.1.13,2013-01-23 05:07:00,
2013-01-23 00:12:00,5.4,1.4,30.07,WNW,284,0.0,3.0,83,0.00,,,0.00,Wunderground v.1.13,2013-01-23 05:12:00,
2013-01-23 00:17:00,5.3,1.0,30.07,North,355,6.0,6.0,82,0.00,,,0.00,Wunderground v.1.13,2013-01-23 05:17:00,
2013-01-23 00:22:00,5.0,0.2,30.07,NNW,334,4.0,4.0,80,0.00,,,0.00,Wunderground v.1.13,2013-01-23 05:22:00,
2013-01-23 00:28:00,4.9,-0.5,30.07,WSW,254,11.0,11.0,78,0.00,,,0.00,Wunderground v.1.13,2013-01-23 05:28:00,
2013-01-23 00:33:00,4.9,-1.6,30.07,West,270,5.0,5.0,74,0.00,,,0.00,Wunderground v.1.13,2013-01-23 05:33:00,
2013-01-23 00:39:00,4.9,-2.2,30.07,SSE,160,6.0,10.0,72,0.00,,,0.00,Wunderground v.1.13,2013-01-23 05:39:00,
2013-01-23 00:44:00,4.9,-2.5,30.07,North,355,6.0,8.0,71,0.00,,,0.00,Wunderground v.1.13,2013-01-23 05:44:00,
2013-01-23 00:50:00,4.8,-2.8,30.07,WSW,251,2.0,4.0,70,0.00,,,0.00,Wunderground v.1.13,2013-01-23 05:50:00,
2013-01-23 00:55:00,4.6,-3.6,30.07,WNW,290,4.0,4.0,68,0.00,,,0.00,Wunderground v.1.13,2013-01-23 05:55:00,
2013-01-23 01:01:00,4.6,-3.6,30.07,NW,324,2.0,4.0,68,0.00,,,0.00,Wunderground v.1.13,2013-01-23 06:01:00,
2013-01-23 01:07:00,4.5,-4.1,30.07,West,278,1.0,6.0,67,0.00,,,0.00,Wunderground v.1.13,2013-01-23 06:07:00,
2013-01-23 01:13:00,4.3,-3.9,30.07,WNW,292,1.0,4.0,68,0.00,,,0.00,Wunderground v.1.13,2013-01-23 06:13:00,
2013-01-23 01:18:00,4.1,-4.1,30.07,WNW,303,1.0,3.0,68,0.00,,,0.00,Wunderground v.1.13,2013-01-23 06:18:00,
2013-01-23 01:24:00,4.0,-4.5,30.07,South,186,1.0,7.0,67,0.00,,,0.00,Wunderground v.1.13,2013-01-23 06:24:00,
2013-01-23 01:29:00,3.8,-5.0,30.07,West,268,10.0,10.0,66,0.00,,,0.00,Wunderground v.1.13,2013-01-23 06:29:00,
2013-01-23 01:35:00,3.7,-5.1,30.07,WSW,254,4.0,4.0,66,0.00,,,0.00,Wunderground v.1.13,2013-01-23 06:35:00,
2013-01-23 01:40:00,3.6,-5.2,30.07,West,281,3.0,3.0,66,0.00,,,0.00,Wunderground v.1.13,2013-01-23 06:40:00,
2013-01-23 01:45:00,3.5,-5.6,30.07,WNW,296,4.0,4.0,65,0.00,,,0.00,Wunderground v.1.13,2013-01-23 06:45:00,
2013-01-23 01:50:00,3.3,-6.2,30.08,WSW,258,4.0,4.0,64,0.00,,,0.00,Wunderground v.1.13,2013-01-23 06:50:00,
2013-01-23 01:56:00,3.2,-5.9,30.08,West,259,6.0,6.0,65,0.00,,,0.00,Wunderground v.1.13,2013-01-23 06:56:00,
2013-01-23 02:01:00,3.1,-6.3,30.08,WSW,240,2.0,6.0,64,0.00,,,0.00,Wunderground v.1.13,2013-01-23 07:01:00,
2013-01-23 02:07:00,2.9,-6.9,30.08,SW,222,4.0,6.0,63,0.00,,,0.00,Wunderground v.1.13,2013-01-23 07:07:00,
2013-01-23 02:12:00,2.9,-7.5,30.08,NNW,331,2.0,11.0,61,0.00,,,0.00,Wunderground v.1.13,2013-01-23 07:12:00,
2013-01-23 02:17:00,2.8,-8.0,30.08,NW,313,1.0,8.0,60,0.00,,,0.00,Wunderground v.1.13,2013-01-23 07:17:00,
2013-01-23 02:22:00,2.7,-8.1,30.08,West,262,1.0,3.0,60,0.00,,,0.00,Wunderground v.1.13,2013-01-23 07:22:00,
2013-01-23 02:27:00,2.6,-8.1,30.09,SW,232,0.0,3.0,60,0.00,,,0.00,Wunderground v.1.13,2013-01-23 07:27:00,
2013-01-23 02:32:00,2.4,-8.3,30.09,WNW,287,1.0,5.0,60,0.00,,,0.00,Wunderground v.1.13,2013-01-23 07:32:00,
2013-01-23 02:37:00,2.3,-8.4,30.09,WSW,243,5.0,5.0,60,0.00,,,0.00,Wunderground v.1.13,2013-01-23 07:37:00,
2013-01-23 02:42:00,2.3,-7.8,30.09,WSW,240,3.0,6.0,62,0.00,,,0.00,Wunderground v.1.13,2013-01-23 07:42:00,
2013-01-23 02:47:00,2.2,-7.5,30.09,South,191,6.0,6.0,63,0.00,,,0.00,Wunderground v.1.13,2013-01-23 07:47:00,
2013-01-23 02:52:00,2.1,-7.0,30.09,West,268,1.0,3.0,65,0.00,,,0.00,Wunderground v.1.13,2013-01-23 07:52:00,
2013-01-23 02:58:00,1.9,-7.2,30.09,SW,222,0.0,6.0,65,0.00,,,0.00,Wunderground v.1.13,2013-01-23 07:58:00,
2013-01-23 03:03:00,1.8,-7.3,30.09,WNW,288,4.0,6.0,65,0.00,,,0.00,Wunderground v.1.13,2013-01-23 08:03:00,
2013-01-23 03:08:00,1.7,-7.7,30.08,West,262,6.0,8.0,64,0.00,,,0.00,Wunderground v.1.13,2013-01-23 08:08:00,
2013-01-23 03:13:00,1.6,-7.8,30.08,WSW,243,1.0,5.0,64,0.00,,,0.00,Wunderground v.1.13,2013-01-23 08:13:00,
2013-01-23 03:18:00,1.6,-7.8,30.08,WNW,290,1.0,6.0,64,0.00,,,0.00,Wunderground v.1.13,2013-01-23 08:18:00,
2013-01-23 03:23:00,1.4,-8.0,30.08,West,271,1.0,6.0,64,0.00,,,0.00,Wunderground v.1.13,2013-01-23 08:23:00,
2013-01-23 03:28:00,1.4,-7.0,30.08,WSW,246,2.0,5.0,67,0.00,,,0.00,Wunderground v.1.13,2013-01-23 08:28:00,
2013-01-23 03:33:00,1.3,-7.4,30.08,West,267,5.0,10.0,66,0.00,,,0.00,Wunderground v.1.13,2013-01-23 08:33:00,
2013-01-23 03:38:00,1.1,-7.3,30.08,SW,222,5.0,8.0,67,0.00,,,0.00,Wunderground v.1.13,2013-01-23 08:38:00,
2013-01-23 03:43:00,1.0,-7.4,30.09,NW,313,1.0,4.0,67,0.00,,,0.00,Wunderground v.1.13,2013-01-23 08:43:00,
2013-01-23 03:48:00,0.9,-7.5,30.09,WNW,283,2.0,3.0,67,0.00,,,0.00,Wunderground v.1.13,2013-01-23 08:48:00,
2013-01-23 03:54:00,0.8,-7.6,30.09,WSW,252,5.0,5.0,67,0.00,,,0.00,Wunderground v.1.13,2013-01-23 08:54:00,
2013-01-23 03:59:00,0.6,-7.8,30.09,WSW,248,1.0,3.0,67,0.00,,,0.00,Wunderground v.1.13,2013-01-23 08:59:00,
2013-01-23 04:04:00,0.5,-7.9,30.09,West,268,2.0,7.0,67,0.00,,,0.00,Wunderground v.1.13,2013-01-23 09:04:00,
2013-01-23 04:09:00,0.4,-8.6,30.09,WNW,288,5.0,7.0,65,0.00,,,0.00,Wunderground v.1.13,2013-01-23 09:09:00,
2013-01-23 04:14:00,0.4,-8.0,30.09,WSW,247,5.0,7.0,67,0.00,,,0.00,Wunderground v.1.13,2013-01-23 09:14:00,
2013-01-23 04:19:00,0.2,-8.8,30.09,WNW,284,0.0,14.0,65,0.00,,,0.00,Wunderground v.1.13,2013-01-23 09:19:00,
2013-01-23 04:24:00,0.1,-8.9,30.09,WSW,244,0.0,5.0,65,0.00,,,0.00,Wunderground v.1.13,2013-01-23 09:24:00,
2013-01-23 04:29:00,0.0,-9.0,30.09,West,267,0.0,3.0,65,0.00,,,0.00,Wunderground v.1.13,2013-01-23 09:29:00,
2013-01-23 04:34:00,-0.1,-9.4,30.09,WNW,294,1.0,4.0,64,0.00,,,0.00,Wunderground v.1.13,2013-01-23 09:34:00,
2013-01-23 04:39:00,0.0,-9.6,30.09,WNW,290,5.0,8.0,63,0.00,,,0.00,Wunderground v.1.13,2013-01-23 09:39:00,
2013-01-23 04:44:00,-0.1,-9.7,30.09,WNW,284,1.0,4.0,63,0.00,,,0.00,Wunderground v.1.13,2013-01-23 09:44:00,
2013-01-23 04:49:00,-0.1,-9.7,30.10,West,272,2.0,8.0,63,0.00,,,0.00,Wunderground v.1.13,2013-01-23 09:49:00,
2013-01-23 04:54:00,-0.1,-9.4,30.10,West,272,4.0,6.0,64,0.00,,,0.00,Wunderground v.1.13,2013-01-23 09:54:00,
2013-01-23 04:59:00,-0.2,-9.5,30.10,West,261,2.0,9.0,64,0.00,,,0.00,Wunderground v.1.13,2013-01-23 09:59:00,
2013-01-23 05:04:00,-0.3,-9.3,30.10,West,260,5.0,5.0,65,0.00,,,0.00,Wunderground v.1.13,2013-01-23 10:04:00,
2013-01-23 05:09:00,-0.4,-9.4,30.10,SW,221,4.0,6.0,65,0.00,,,0.00,Wunderground v.1.13,2013-01-23 10:09:00,
2013-01-23 05:14:00,-0.4,-9.1,30.10,SW,234,0.0,5.0,66,0.00,,,0.00,Wunderground v.1.13,2013-01-23 10:14:00,
2013-01-23 05:19:00,-0.5,-8.8,30.11,West,265,7.0,7.0,67,0.00,,,0.00,Wunderground v.1.13,2013-01-23 10:19:00,
2013-01-23 05:24:00,-0.6,-8.9,30.11,WSW,247,0.0,5.0,67,0.00,,,0.00,Wunderground v.1.13,2013-01-23 10:24:00,
2013-01-23 05:30:00,-0.7,-9.0,30.11,West,267,2.0,3.0,67,0.00,,,0.00,Wunderground v.1.13,2013-01-23 10:30:00,
2013-01-23 05:35:00,-0.8,-9.1,30.11,West,281,2.0,3.0,67,0.00,,,0.00,Wunderground v.1.13,2013-01-23 10:35:00,
2013-01-23 05:40:00,-0.8,-8.8,30.11,WNW,285,2.0,3.0,68,0.00,,,0.00,Wunderground v.1.13,2013-01-23 10:40:00,
2013-01-23 05:45:00,-0.9,-9.2,30.11,SW,233,2.0,3.0,67,0.00,,,0.00,Wunderground v.1.13,2013-01-23 10:45:00,
2013-01-23 05:50:00,-1.0,-9.3,30.11,West,269,2.0,3.0,67,0.00,,,0.00,Wunderground v.1.13,2013-01-23 10:50:00,
2013-01-23 05:55:00,-1.1,-9.4,30.11,NW,319,2.0,3.0,67,0.00,,,0.00,Wunderground v.1.13,2013-01-23 10:55:00,
2013-01-23 06:00:00,-1.2,-9.5,30.11,NNW,331,1.0,2.0,67,0.00,,,0.00,Wunderground v.1.13,2013-01-23 11:00:00,
2013-01-23 06:05:00,-1.2,-8.9,30.11,SW,234,4.0,4.0,69,0.00,,,0.00,Wunderground v.1.13,2013-01-23 11:05:00,
2013-01-23 06:11:00,-1.3,-9.0,30.11,NW,322,3.0,7.0,69,0.00,,,0.00,Wunderground v.1.13,2013-01-23 11:11:00,
2013-01-23 06:16:00,-1.3,-9.3,30.12,West,275,4.0,5.0,68,0.00,,,0.00,Wunderground v.1.13,2013-01-23 11:16:00,
2013-01-23 06:21:00,-1.4,-9.4,30.12,West,268,2.0,4.0,68,0.00,,,0.00,Wunderground v.1.13,2013-01-23 11:21:00,
2013-01-23 06:26:00,-1.6,-9.9,30.12,West,279,4.0,4.0,67,0.00,,,0.00,Wunderground v.1.13,2013-01-23 11:26:00,
2013-01-23 06:31:00,-1.5,-9.5,30.12,West,279,2.0,4.0,68,0.00,,,0.00,Wunderground v.1.13,2013-01-23 11:31:00,
2013-01-23 06:36:00,-1.6,-9.6,30.12,WSW,237,4.0,6.0,68,0.00,,,0.00,Wunderground v.1.13,2013-01-23 11:36:00,
2013-01-23 06:41:00,-1.7,-9.7,30.12,NW,315,2.0,11.0,68,0.00,,,0.00,Wunderground v.1.13,2013-01-23 11:41:00,
2013-01-23 06:46:00,-1.7,-9.7,30.12,West,273,2.0,3.0,68,0.00,,,0.00,Wunderground v.1.13,2013-01-23 11:46:00,
2013-01-23 06:51:00,-1.8,-9.8,30.12,WNW,294,2.0,6.0,68,0.00,,,0.00,Wunderground v.1.13,2013-01-23 11:51:00,
2013-01-23 06:56:00,-1.9,-10.2,30.12,WSW,252,6.0,9.0,67,0.00,,,0.00,Wunderground v.1.13,2013-01-23 11:56:00,
2013-01-23 07:01:00,-1.9,-10.2,30.12,NNW,327,6.0,8.0,67,0.00,,,0.00,Wunderground v.1.13,2013-01-23 12:01:00,
2013-01-23 07:06:00,-1.9,-10.2,30.12,WSW,238,2.0,4.0,67,0.00,,,0.00,Wunderground v.1.13,2013-01-23 12:06:00,
2013-01-23 07:12:00,-1.9,-9.9,30.12,NW,304,2.0,3.0,68,0.00,,,0.00,Wunderground v.1.13,2013-01-23 12:12:00,
2013-01-23 07:17:00,-2.1,-10.1,30.12,WNW,296,3.0,7.0,68,0.00,,,0.00,Wunderground v.1.13,2013-01-23 12:17:00,
2013-01-23 07:22:00,-2.1,-10.4,30.12,SW,228,5.0,5.0,67,0.00,,,0.00,Wunderground v.1.13,2013-01-23 12:22:00,
2013-01-23 07:27:00,-2.1,-10.4,30.12,NNW,336,2.0,10.0,67,0.00,,,0.00,Wunderground v.1.13,2013-01-23 12:27:00,
2013-01-23 07:32:00,-2.1,-10.4,30.12,West,280,1.0,5.0,67,0.00,,,0.00,Wunderground v.1.13,2013-01-23 12:32:00,
2013-01-23 07:37:00,-2.1,-10.1,30.13,WSW,241,1.0,9.0,68,0.00,,,0.00,Wunderground v.1.13,2013-01-23 12:37:00,
2013-01-23 07:42:00,-2.2,-10.5,30.13,NNW,331,0.0,9.0,67,0.00,,,0.00,Wunderground v.1.13,2013-01-23 12:42:00,
2013-01-23 07:47:00,-2.2,-10.2,30.13,North,5,3.0,8.0,68,0.00,,,0.00,Wunderground v.1.13,2013-01-23 12:47:00,
2013-01-23 07:52:00,-2.1,-10.4,30.13,WSW,238,5.0,7.0,67,0.00,,,0.00,Wunderground v.1.13,2013-01-23 12:52:00,
2013-01-23 07:58:00,-2.1,-10.4,30.13,West,261,3.0,9.0,67,0.00,,,0.00,Wunderground v.1.13,2013-01-23 12:58:00,
2013-01-23 08:03:00,-1.9,-10.2,30.13,South,188,3.0,8.0,67,0.00,,,0.00,Wunderground v.1.13,2013-01-23 13:03:00,
2013-01-23 08:08:00,-1.9,-10.2,30.14,West,281,0.0,3.0,67,0.00,,,0.00,Wunderground v.1.13,2013-01-23 13:08:00,
2013-01-23 08:13:00,-1.7,-10.0,30.14,WSW,252,2.0,7.0,67,0.00,,,0.00,Wunderground v.1.13,2013-01-23 13:13:00,
2013-01-23 08:18:00,-1.5,-9.8,30.14,North,349,1.0,7.0,67,0.00,,,0.00,Wunderground v.1.13,2013-01-23 13:18:00,
2013-01-23 08:23:00,-1.3,-9.6,30.14,South,175,5.0,7.0,67,0.00,,,0.00,Wunderground v.1.13,2013-01-23 13:23:00,
2013-01-23 08:29:00,-1.0,-9.3,30.14,West,265,4.0,6.0,67,0.00,,,0.00,Wunderground v.1.13,2013-01-23 13:29:00,
2013-01-23 08:34:00,-0.8,-9.4,30.14,West,268,2.0,8.0,66,0.00,,,0.00,Wunderground v.1.13,2013-01-23 13:34:00,
2013-01-23 08:39:00,-0.6,-9.6,30.14,West,266,2.0,7.0,65,0.00,,,0.00,Wunderground v.1.13,2013-01-23 13:39:00,
2013-01-23 08:44:00,-0.3,-9.3,30.14,SSW,204,1.0,8.0,65,0.00,,,0.00,Wunderground v.1.13,2013-01-23 13:44:00,
2013-01-23 08:49:00,0.2,-8.8,30.14,NW,304,2.0,3.0,65,0.00,,,0.00,Wunderground v.1.13,2013-01-23 13:49:00,
2013-01-23 08:54:00,0.4,-9.2,30.14,SSW,210,3.0,3.0,63,0.00,,,0.00,Wunderground v.1.13,2013-01-23 13:54:00,
2013-01-23 08:59:00,0.7,-9.3,30.14,West,275,0.0,3.0,62,0.00,,,0.00,Wunderground v.1.13,2013-01-23 13:59:00,
2013-01-23 09:04:00,1.1,-9.2,30.14,WNW,287,3.0,3.0,61,0.00,,,0.00,Wunderground v.1.13,2013-01-23 14:04:00,
2013-01-23 09:09:00,1.1,-9.6,30.14,WNW,293,8.0,8.0,60,0.00,,,0.00,Wunderground v.1.13,2013-01-23 14:09:00,
2013-01-23 09:14:00,1.4,-9.3,30.14,North,355,2.0,4.0,60,0.00,,,0.00,Wunderground v.1.13,2013-01-23 14:14:00,
2013-01-23 09:19:00,1.3,-9.7,30.14,NNW,329,3.0,6.0,59,0.00,,,0.00,Wunderground v.1.13,2013-01-23 14:19:00,
2013-01-23 09:24:00,1.5,-9.9,30.14,WNW,293,6.0,7.0,58,0.00,,,0.00,Wunderground v.1.13,2013-01-23 14:24:00,
2013-01-23 09:30:00,1.5,-9.9,30.14,NW,314,3.0,5.0,58,0.00,,,0.00,Wunderground v.1.13,2013-01-23 14:30:00,
2013-01-23 09:35:00,1.9,-9.2,30.15,West,267,6.0,7.0,59,0.00,,,0.00,Wunderground v.1.13,2013-01-23 14:35:00,
2013-01-23 09:40:00,1.9,-9.5,30.15,NW,316,2.0,4.0,58,0.00,,,0.00,Wunderground v.1.13,2013-01-23 14:40:00,
2013-01-23 09:45:00,2.2,-9.6,30.15,SW,224,2.0,4.0,57,0.00,,,0.00,Wunderground v.1.13,2013-01-23 14:45:00,
2013-01-23 09:50:00,2.4,-9.0,30.15,WSW,252,3.0,5.0,58,0.00,,,0.00,Wunderground v.1.13,2013-01-23 14:50:00,
2013-01-23 09:55:00,2.5,-9.3,30.16,West,260,12.0,12.0,57,0.00,,,0.00,Wunderground v.1.13,2013-01-23 14:55:00,
2013-01-23 10:00:00,2.4,-9.7,30.15,SSW,208,7.0,8.0,56,0.00,,,0.00,Wunderground v.1.13,2013-01-23 15:00:00,
2013-01-23 10:05:00,2.7,-9.8,30.16,West,269,4.0,7.0,55,0.00,,,0.00,Wunderground v.1.13,2013-01-23 15:05:00,
2013-01-23 10:10:00,2.7,-10.2,30.15,WSW,242,5.0,8.0,54,0.00,,,0.00,Wunderground v.1.13,2013-01-23 15:10:00,
2013-01-23 10:16:00,3.0,-9.2,30.15,NNW,348,2.0,5.0,56,0.00,,,0.00,Wunderground v.1.13,2013-01-23 15:16:00,
2013-01-23 10:21:00,2.8,-10.5,30.16,NW,321,3.0,12.0,53,0.00,,,0.00,Wunderground v.1.13,2013-01-23 15:21:00,
2013-01-23 10:26:00,2.7,-10.6,30.16,NNW,333,2.0,10.0,53,0.00,,,0.00,Wunderground v.1.13,2013-01-23 15:26:00,
2013-01-23 10:31:00,2.8,-10.5,30.16,NW,320,2.0,17.0,53,0.00,,,0.00,Wunderground v.1.13,2013-01-23 15:31:00,
2013-01-23 10:36:00,3.1,-10.2,30.16,NNW,344,4.0,7.0,53,0.00,,,0.00,Wunderground v.1.13,2013-01-23 15:36:00,
2013-01-23 10:41:00,2.9,-10.4,30.16,WNW,291,1.0,10.0,53,0.00,,,0.00,Wunderground v.1.13,2013-01-23 15:41:00,
2013-01-23 10:47:00,3.3,-10.0,30.16,NW,311,1.0,10.0,53,0.00,,,0.00,Wunderground v.1.13,2013-01-23 15:47:00,
2013-01-23 10:52:00,3.5,-9.8,30.16,West,259,10.0,15.0,53,0.00,,,0.00,Wunderground v.1.13,2013-01-23 15:52:00,
2013-01-23 10:57:00,3.4,-9.9,30.16,WNW,294,5.0,8.0,53,0.00,,,0.00,Wunderground v.1.13,2013-01-23 15:57:00,
2013-01-23 11:02:00,3.7,-9.3,30.15,NW,317,0.0,10.0,54,0.00,,,0.00,Wunderground v.1.13,2013-01-23 16:02:00,
2013-01-23 11:07:00,4.2,-8.8,30.15,SW,234,6.0,10.0,54,0.00,,,0.00,Wunderground v.1.13,2013-01-23 16:07:00,
2013-01-23 11:12:00,4.0,-9.8,30.15,WNW,286,6.0,11.0,52,0.00,,,0.00,Wunderground v.1.13,2013-01-23 16:12:00,
2013-01-23 11:17:00,3.9,-9.8,30.15,NW,322,3.0,14.0,52,0.00,,,0.00,Wunderground v.1.13,2013-01-23 16:17:00,
2013-01-23 11:22:00,3.8,-9.9,30.15,NNW,342,5.0,16.0,52,0.00,,,0.00,Wunderground v.1.13,2013-01-23 16:22:00,
2013-01-23 11:27:00,4.0,-9.8,30.15,South,184,7.0,8.0,52,0.00,,,0.00,Wunderground v.1.13,2013-01-23 16:27:00,
2013-01-23 11:32:00,4.4,-9.0,30.14,WNW,294,2.0,9.0,53,0.00,,,0.00,Wunderground v.1.13,2013-01-23 16:32:00,
2013-01-23 11:37:00,4.5,-9.7,30.15,NNE,16,10.0,14.0,51,0.00,,,0.00,Wunderground v.1.13,2013-01-23 16:37:00,
2013-01-23 11:42:00,4.4,-9.4,30.14,NNW,334,5.0,9.0,52,0.00,,,0.00,Wunderground v.1.13,2013-01-23 16:42:00,
2013-01-23 11:48:00,4.7,-9.1,30.15,West,259,8.0,8.0,52,0.00,,,0.00,Wunderground v.1.13,2013-01-23 16:48:00,
2013-01-23 11:53:00,4.3,-9.5,30.15,NNE,17,5.0,17.0,52,0.00,,,0.00,Wunderground v.1.13,2013-01-23 16:53:00,
2013-01-23 11:58:00,4.4,-9.4,30.15,NW,315,2.0,8.0,52,0.00,,,0.00,Wunderground v.1.13,2013-01-23 16:58:00,
2013-01-23 12:03:00,4.0,-9.8,30.14,North,350,0.0,11.0,52,0.00,,,0.00,Wunderground v.1.13,2013-01-23 17:03:00,
2013-01-23 12:09:00,4.1,-9.7,30.14,West,271,1.0,4.0,52,0.00,,,0.00,Wunderground v.1.13,2013-01-23 17:09:00,
2013-01-23 12:14:00,3.9,-9.5,30.14,NNW,333,3.0,7.0,53,0.00,,,0.00,Wunderground v.1.13,2013-01-23 17:14:00,
2013-01-23 12:19:00,3.9,-9.5,30.13,NW,320,6.0,6.0,53,0.00,,,0.00,Wunderground v.1.13,2013-01-23 17:19:00,
2013-01-23 12:24:00,4.1,-9.7,30.13,West,278,7.0,7.0,52,0.00,,,0.00,Wunderground v.1.13,2013-01-23 17:24:00,
2013-01-23 12:29:00,4.9,-8.1,30.13,WSW,248,4.0,7.0,54,0.00,,,0.00,Wunderground v.1.13,2013-01-23 17:29:00,
2013-01-23 12:34:00,5.2,-8.2,30.13,West,267,3.0,13.0,53,0.00,,,0.00,Wunderground v.1.13,2013-01-23 17:34:00,
2013-01-23 12:39:00,5.2,-7.5,30.13,West,259,5.0,12.0,55,0.00,,,0.00,Wunderground v.1.13,2013-01-23 17:39:00,
2013-01-23 12:44:00,4.9,-8.5,30.13,NNW,347,5.0,6.0,53,0.00,,,0.00,Wunderground v.1.13,2013-01-23 17:44:00,
2013-01-23 12:49:00,4.9,-7.8,30.13,North,5,4.0,10.0,55,0.00,,,0.00,Wunderground v.1.13,2013-01-23 17:49:00,
2013-01-23 12:54:00,4.7,-8.3,30.12,North,355,4.0,7.0,54,0.00,,,0.00,Wunderground v.1.13,2013-01-23 17:54:00,
2013-01-23 12:59:00,4.8,-7.9,30.12,WNW,300,2.0,9.0,55,0.00,,,0.00,Wunderground v.1.13,2013-01-23 17:59:00,
2013-01-23 13:04:00,5.1,-8.0,30.12,SW,234,14.0,14.0,54,0.00,,,0.00,Wunderground v.1.13,2013-01-23 18:04:00,
2013-01-23 13:09:00,4.7,-8.3,30.12,NNW,344,3.0,14.0,54,0.00,,,0.00,Wunderground v.1.13,2013-01-23 18:09:00,
2013-01-23 13:15:00,4.6,-8.0,30.12,NW,325,2.0,4.0,55,0.00,,,0.00,Wunderground v.1.13,2013-01-23 18:15:00,
2013-01-23 13:20:00,4.4,-7.9,30.12,WNW,302,2.0,3.0,56,0.00,,,0.00,Wunderground v.1.13,2013-01-23 18:20:00,
2013-01-23 13:25:00,4.6,-7.3,30.11,NNW,330,5.0,6.0,57,0.00,,,0.00,Wunderground v.1.13,2013-01-23 18:25:00,
2013-01-23 13:30:00,5.0,-6.9,30.11,SW,230,5.0,5.0,57,0.00,,,0.00,Wunderground v.1.13,2013-01-23 18:30:00,
2013-01-23 13:35:00,5.1,-7.2,30.11,West,265,6.0,7.0,56,0.00,,,0.00,Wunderground v.1.13,2013-01-23 18:35:00,
2013-01-23 13:41:00,5.4,-7.3,30.11,WNW,302,2.0,6.0,55,0.00,,,0.00,Wunderground v.1.13,2013-01-23 18:41:00,
2013-01-23 13:45:00,5.8,-6.5,30.12,NNW,344,7.0,7.0,56,0.00,,,0.00,Wunderground v.1.13,2013-01-23 18:45:00,
2013-01-23 13:51:00,5.8,-6.5,30.12,WSW,254,4.0,6.0,56,0.00,,,0.00,Wunderground v.1.13,2013-01-23 18:51:00,
2013-01-23 13:56:00,5.3,-6.7,30.12,West,260,8.0,8.0,57,0.00,,,0.00,Wunderground v.1.13,2013-01-23 18:56:00,
2013-01-23 14:01:00,5.3,-6.3,30.12,North,350,4.0,5.0,58,0.00,,,0.00,Wunderground v.1.13,2013-01-23 19:01:00,
2013-01-23 14:06:00,5.4,-6.2,30.12,NNW,329,0.0,4.0,58,0.00,,,0.00,Wunderground v.1.13,2013-01-23 19:06:00,
2013-01-23 14:11:00,5.9,-5.4,30.12,West,273,6.0,9.0,59,0.00,,,0.00,Wunderground v.1.13,2013-01-23 19:11:00,
2013-01-23 14:17:00,5.9,-5.7,30.12,West,276,5.0,7.0,58,0.00,,,0.00,Wunderground v.1.13,2013-01-23 19:17:00,
2013-01-23 14:22:00,5.8,-5.5,30.12,West,274,9.0,11.0,59,0.00,,,0.00,Wunderground v.1.13,2013-01-23 19:22:00,
2013-01-23 14:27:00,5.7,-5.6,30.13,NNE,14,3.0,7.0,59,0.00,,,0.00,Wunderground v.1.13,2013-01-23 19:27:00,
2013-01-23 14:32:00,5.5,-5.7,30.13,West,274,5.0,11.0,59,0.00,,,0.00,Wunderground v.1.13,2013-01-23 19:32:00,
2013-01-23 14:37:00,5.5,-5.7,30.13,WSW,238,1.0,6.0,59,0.00,,,0.00,Wunderground v.1.13,2013-01-23 19:37:00,
2013-01-23 14:42:00,5.6,-5.7,30.13,WNW,296,3.0,5.0,59,0.00,,,0.00,Wunderground v.1.13,2013-01-23 19:42:00,
2013-01-23 14:48:00,5.6,-6.4,30.13,WNW,302,3.0,6.0,57,0.00,,,0.00,Wunderground v.1.13,2013-01-23 19:48:00,
2013-01-23 14:53:00,5.5,-6.5,30.12,NNW,348,3.0,8.0,57,0.00,,,0.00,Wunderground v.1.13,2013-01-23 19:53:00,
2013-01-23 14:58:00,5.6,-6.0,30.13,WNW,296,3.0,9.0,58,0.00,,,0.00,Wunderground v.1.13,2013-01-23 19:58:00,
2013-01-23 15:03:00,5.5,-6.1,30.13,NNW,334,3.0,7.0,58,0.00,,,0.00,Wunderground v.1.13,2013-01-23 20:03:00,
2013-01-23 15:08:00,5.3,-5.6,30.13,WNW,286,0.0,6.0,60,0.00,,,0.00,Wunderground v.1.13,2013-01-23 20:08:00,
2013-01-23 15:13:00,5.2,-5.7,30.13,West,271,8.0,12.0,60,0.00,,,0.00,Wunderground v.1.13,2013-01-23 20:13:00,
2013-01-23 15:18:00,5.1,-5.8,30.13,West,267,6.0,11.0,60,0.00,,,0.00,Wunderground v.1.13,2013-01-23 20:18:00,
2013-01-23 15:23:00,5.1,-5.4,30.13,West,265,3.0,6.0,61,0.00,,,0.00,Wunderground v.1.13,2013-01-23 20:23:00,
2013-01-23 15:28:00,4.8,-6.1,30.13,North,355,5.0,8.0,60,0.00,,,0.00,Wunderground v.1.13,2013-01-23 20:28:00,
2013-01-23 15:33:00,4.8,-5.7,30.13,WNW,294,3.0,10.0,61,0.00,,,0.00,Wunderground v.1.13,2013-01-23 20:33:00,
2013-01-23 15:38:00,4.8,-5.4,30.12,WNW,296,0.0,10.0,62,0.00,,,0.00,Wunderground v.1.13,2013-01-23 20:38:00,
2013-01-23 15:43:00,4.8,-5.4,30.13,West,261,9.0,12.0,62,0.00,,,0.00,Wunderground v.1.13,2013-01-23 20:43:00,
2013-01-23 15:48:00,4.7,-5.5,30.13,WSW,252,2.0,9.0,62,0.00,,,0.00,Wunderground v.1.13,2013-01-23 20:48:00,
2013-01-23 15:53:00,4.7,-5.5,30.12,West,269,1.0,6.0,62,0.00,,,0.00,Wunderground v.1.13,2013-01-23 20:53:00,
2013-01-23 15:58:00,4.6,-5.9,30.13,WSW,254,3.0,5.0,61,0.00,,,0.00,Wunderground v.1.13,2013-01-23 20:58:00,
2013-01-23 16:04:00,4.6,-6.3,30.13,West,272,1.0,9.0,60,0.00,,,0.00,Wunderground v.1.13,2013-01-23 21:04:00,
2013-01-23 16:09:00,4.5,-6.3,30.13,West,271,2.0,11.0,60,0.00,,,0.00,Wunderground v.1.13,2013-01-23 21:09:00,
2013-01-23 16:14:00,4.5,-6.3,30.13,West,261,2.0,3.0,60,0.00,,,0.00,Wunderground v.1.13,2013-01-23 21:14:00,
2013-01-23 16:19:00,4.4,-6.4,30.13,West,265,5.0,5.0,60,0.00,,,0.00,Wunderground v.1.13,2013-01-23 21:19:00,
2013-01-23 16:24:00,4.2,-6.6,30.13,West,272,4.0,5.0,60,0.00,,,0.00,Wunderground v.1.13,2013-01-23 21:24:00,
2013-01-23 16:30:00,4.0,-6.8,30.13,SW,236,6.0,6.0,60,0.00,,,0.00,Wunderground v.1.13,2013-01-23 21:30:00,
2013-01-23 16:35:00,3.8,-7.0,30.13,West,280,4.0,4.0,60,0.00,,,0.00,Wunderground v.1.13,2013-01-23 21:35:00,
2013-01-23 16:45:00,3.5,-7.0,30.14,NW,314,1.0,4.0,61,0.00,,,0.00,Wunderground v.1.13,2013-01-23 21:45:00,
2013-01-23 16:50:00,3.4,-7.0,30.14,SW,223,4.0,5.0,61,0.00,,,0.00,Wunderground v.1.13,2013-01-23 21:50:00,
2013-01-23 16:55:00,3.2,-6.9,30.14,West,276,1.0,3.0,62,0.00,,,0.00,Wunderground v.1.13,2013-01-23 21:55:00,
2013-01-23 17:00:00,2.9,-7.2,30.14,SW,225,8.0,8.0,62,0.00,,,0.00,Wunderground v.1.13,2013-01-23 22:00:00,
2013-01-23 17:05:00,2.7,-7.1,30.14,WNW,284,2.0,6.0,63,0.00,,,0.00,Wunderground v.1.13,2013-01-23 22:05:00,
2013-01-23 17:10:00,2.5,-7.2,30.14,West,269,3.0,3.0,63,0.00,,,0.00,Wunderground v.1.13,2013-01-23 22:10:00,
2013-01-23 17:15:00,2.3,-7.1,30.14,WSW,254,5.0,5.0,64,0.00,,,0.00,Wunderground v.1.13,2013-01-23 22:15:00,
2013-01-23 17:20:00,2.1,-7.3,30.15,West,262,1.0,4.0,64,0.00,,,0.00,Wunderground v.1.13,2013-01-23 22:20:00,
2013-01-23 17:25:00,1.9,-7.2,30.14,WSW,258,2.0,3.0,65,0.00,,,0.00,Wunderground v.1.13,2013-01-23 22:25:00,
2013-01-23 17:30:00,1.9,-7.2,30.15,West,263,0.0,4.0,65,0.00,,,0.00,Wunderground v.1.13,2013-01-23 22:30:00,
2013-01-23 17:35:00,1.8,-7.0,30.15,WSW,248,6.0,7.0,66,0.00,,,0.00,Wunderground v.1.13,2013-01-23 22:35:00,
2013-01-23 17:40:00,1.8,-6.6,30.15,SW,234,1.0,3.0,67,0.00,,,0.00,Wunderground v.1.13,2013-01-23 22:40:00,
2013-01-23 17:45:00,1.6,-7.1,30.15,WSW,238,0.0,3.0,66,0.00,,,0.00,Wunderground v.1.13,2013-01-23 22:45:00,
2013-01-23 17:51:00,1.4,-7.0,30.15,West,281,1.0,7.0,67,0.00,,,0.00,Wunderground v.1.13,2013-01-23 22:51:00,
2013-01-23 17:56:00,1.4,-7.0,30.16,WSW,245,2.0,3.0,67,0.00,,,0.00,Wunderground v.1.13,2013-01-23 22:56:00,
2013-01-23 18:01:00,1.4,-7.3,30.16,West,278,0.0,3.0,66,0.00,,,0.00,Wunderground v.1.13,2013-01-23 23:01:00,
2013-01-23 18:06:00,1.4,-7.0,30.16,SW,234,0.0,3.0,67,0.00,,,0.00,Wunderground v.1.13,2013-01-23 23:06:00,
2013-01-23 18:11:00,1.3,-7.4,30.16,South,179,4.0,6.0,66,0.00,,,0.00,Wunderground v.1.13,2013-01-23 23:11:00,
2013-01-23 18:16:00,1.3,-7.1,30.16,WSW,242,3.0,5.0,67,0.00,,,0.00,Wunderground v.1.13,2013-01-23 23:16:00,
2013-01-23 18:21:00,1.3,-7.4,30.16,West,261,4.0,8.0,66,0.00,,,0.00,Wunderground v.1.13,2013-01-23 23:21:00,
2013-01-23 18:26:00,1.2,-7.2,30.16,West,270,1.0,11.0,67,0.00,,,0.00,Wunderground v.1.13,2013-01-23 23:26:00,
2013-01-23 18:32:00,1.1,-7.3,30.16,SW,223,1.0,8.0,67,0.00,,,0.00,Wunderground v.1.13,2013-01-23 23:32:00,
2013-01-23 18:37:00,1.1,-7.0,30.16,NW,317,3.0,3.0,68,0.00,,,0.00,Wunderground v.1.13,2013-01-23 23:37:00,
2013-01-23 18:42:00,1.0,-7.1,30.16,West,265,1.0,4.0,68,0.00,,,0.00,Wunderground v.1.13,2013-01-23 23:42:00,
2013-01-23 18:47:00,1.0,-7.1,30.17,West,264,3.0,4.0,68,0.00,,,0.00,Wunderground v.1.13,2013-01-23 23:47:00,
2013-01-23 18:52:00,0.8,-7.0,30.17,SSW,209,2.0,2.0,69,0.00,,,0.00,Wunderground v.1.13,2013-01-23 23:52:00,
2013-01-23 18:57:00,0.6,-7.2,30.17,NW,309,0.0,3.0,69,0.00,,,0.00,Wunderground v.1.13,2013-01-23 23:57:00,
2013-01-23 19:02:00,0.6,-6.9,30.17,WSW,238,2.0,3.0,70,0.00,,,0.00,Wunderground v.1.13,2013-01-24 00:02:00,
2013-01-23 19:08:00,0.5,-7.0,30.16,West,276,2.0,5.0,70,0.00,,,0.00,Wunderground v.1.13,2013-01-24 00:08:00,
2013-01-23 19:13:00,0.5,-7.3,30.16,WSW,246,3.0,3.0,69,0.00,,,0.00,Wunderground v.1.13,2013-01-24 00:13:00,
2013-01-23 19:18:00,0.5,-7.3,30.16,ENE,63,4.0,7.0,69,0.00,,,0.00,Wunderground v.1.13,2013-01-24 00:18:00,
2013-01-23 19:23:00,0.4,-7.4,30.16,West,279,2.0,3.0,69,0.00,,,0.00,Wunderground v.1.13,2013-01-24 00:23:00,
2013-01-23 19:28:00,0.4,-6.8,30.16,West,269,0.0,2.0,71,0.00,,,0.00,Wunderground v.1.13,2013-01-24 00:28:00,
2013-01-23 19:33:00,0.6,-6.3,30.16,SW,214,2.0,2.0,72,0.00,,,0.00,Wunderground v.1.13,2013-01-24 00:33:00,
2013-01-23 19:38:00,0.6,-6.6,30.16,ESE,110,0.0,1.0,71,0.00,,,0.00,Wunderground v.1.13,2013-01-24 00:38:00,
2013-01-23 19:43:00,0.5,-6.7,30.16,East,88,5.0,5.0,71,0.00,,,0.00,Wunderground v.1.13,2013-01-24 00:43:00,
2013-01-23 19:48:00,0.3,-7.2,30.17,WSW,254,0.0,3.0,70,0.00,,,0.00,Wunderground v.1.13,2013-01-24 00:48:00,
2013-01-23 19:53:00,0.2,-6.7,30.16,SSW,211,2.0,3.0,72,0.00,,,0.00,Wunderground v.1.13,2013-01-24 00:53:00,
2013-01-23 19:58:00,0.3,-6.6,30.16,SSW,192,1.0,2.0,72,0.00,,,0.00,Wunderground v.1.13,2013-01-24 00:58:00,
2013-01-23 20:03:00,0.1,-6.8,30.16,SSW,206,1.0,6.0,72,0.00,,,0.00,Wunderground v.1.13,2013-01-24 01:03:00,
2013-01-23 20:08:00,0.0,-6.9,30.16,SSW,203,0.0,1.0,72,0.00,,,0.00,Wunderground v.1.13,2013-01-24 01:08:00,
2013-01-23 20:13:00,-0.2,-7.1,30.17,NW,320,0.0,2.0,72,0.00,,,0.00,Wunderground v.1.13,2013-01-24 01:13:00,
2013-01-23 20:18:00,-0.3,-7.5,30.17,East,88,2.0,2.0,71,0.00,,,0.00,Wunderground v.1.13,2013-01-24 01:18:00,
2013-01-23 20:24:00,-0.5,-7.4,30.17,ESE,108,1.0,2.0,72,0.00,,,0.00,Wunderground v.1.13,2013-01-24 01:24:00,
2013-01-23 20:30:00,-1.0,-7.9,30.17,ESE,108,0.0,1.0,72,0.00,,,0.00,Wunderground v.1.13,2013-01-24 01:30:00,
2013-01-23 20:35:00,-1.3,-8.1,30.17,ESE,108,1.0,1.0,72,0.00,,,0.00,Wunderground v.1.13,2013-01-24 01:35:00,
2013-01-23 20:40:00,-1.3,-7.3,30.17,ESE,108,0.0,0.0,75,0.00,,,0.00,Wunderground v.1.13,2013-01-24 01:40:00,
2013-01-23 20:45:00,-1.3,-7.0,30.17,ESE,108,0.0,0.0,76,0.00,,,0.00,Wunderground v.1.13,2013-01-24 01:45:00,
2013-01-23 20:50:00,-1.6,-7.6,30.17,SW,227,0.0,1.0,75,0.00,,,0.00,Wunderground v.1.13,2013-01-24 01:50:00,
2013-01-23 20:56:00,-1.7,-7.7,30.17,SW,227,1.0,1.0,75,0.00,,,0.00,Wunderground v.1.13,2013-01-24 01:56:00,
2013-01-23 21:01:00,-1.8,-7.5,30.17,ENE,76,0.0,2.0,76,0.00,,,0.00,Wunderground v.1.13,2013-01-24 02:01:00,
2013-01-23 21:06:00,-2.1,-7.8,30.17,WNW,292,1.0,1.0,76,0.00,,,0.00,Wunderground v.1.13,2013-01-24 02:06:00,
2013-01-23 21:11:00,-1.9,-7.6,30.17,SW,219,0.0,2.0,76,0.00,,,0.00,Wunderground v.1.13,2013-01-24 02:11:00,
2013-01-23 21:16:00,-1.7,-7.4,30.17,WSW,238,0.0,1.0,76,0.00,,,0.00,Wunderground v.1.13,2013-01-24 02:16:00,
2013-01-23 21:21:00,-1.8,-7.8,30.17,WSW,238,0.0,2.0,75,0.00,,,0.00,Wunderground v.1.13,2013-01-24 02:21:00,
2013-01-23 21:26:00,-2.0,-8.3,30.17,WSW,238,0.0,1.0,74,0.00,,,0.00,Wunderground v.1.13,2013-01-24 02:26:00,
2013-01-23 21:31:00,-2.1,-8.1,30.17,West,280,1.0,1.0,75,0.00,,,0.00,Wunderground v.1.13,2013-01-24 02:31:00,
2013-01-23 21:37:00,-2.0,-8.0,30.17,WSW,242,0.0,1.0,75,0.00,,,0.00,Wunderground v.1.13,2013-01-24 02:37:00,
2013-01-23 21:43:00,-1.9,-7.9,30.17,WNW,284,2.0,2.0,75,0.00,,,0.00,Wunderground v.1.13,2013-01-24 02:43:00,
2013-01-23 21:48:00,-1.8,-8.1,30.17,NW,304,0.0,3.0,74,0.00,,,0.00,Wunderground v.1.13,2013-01-24 02:48:00,
2013-01-23 21:53:00,-1.7,-8.3,30.17,SW,236,0.0,3.0,73,0.00,,,0.00,Wunderground v.1.13,2013-01-24 02:53:00,
2013-01-23 21:58:00,-1.6,-7.9,30.17,WSW,241,4.0,4.0,74,0.00,,,0.00,Wunderground v.1.13,2013-01-24 02:58:00,
2013-01-23 22:04:00,-1.5,-7.8,30.17,SSW,211,2.0,2.0,74,0.00,,,0.00,Wunderground v.1.13,2013-01-24 03:04:00,
2013-01-23 22:09:00,-1.6,-8.4,30.17,WSW,247,1.0,1.0,72,0.00,,,0.00,Wunderground v.1.13,2013-01-24 03:09:00,
2013-01-23 22:14:00,-1.7,-8.5,30.17,West,275,2.0,2.0,72,0.00,,,0.00,Wunderground v.1.13,2013-01-24 03:14:00,
2013-01-23 22:19:00,-1.8,-8.9,30.17,WNW,296,0.0,1.0,71,0.00,,,0.00,Wunderground v.1.13,2013-01-24 03:19:00,
2013-01-23 22:24:00,-2.0,-9.1,30.16,WNW,296,0.0,1.0,71,0.00,,,0.00,Wunderground v.1.13,2013-01-24 03:24:00,
2013-01-23 22:30:00,-2.3,-9.1,30.17,WNW,296,1.0,1.0,72,0.00,,,0.00,Wunderground v.1.13,2013-01-24 03:30:00,
2013-01-23 22:35:00,-2.6,-9.1,30.17,WNW,296,0.0,0.0,73,0.00,,,0.00,Wunderground v.1.13,2013-01-24 03:35:00,
2013-01-23 22:40:00,-2.8,-9.0,30.17,SSW,200,1.0,1.0,74,0.00,,,0.00,Wunderground v.1.13,2013-01-24 03:40:00,
2013-01-23 22:45:00,-3.2,-9.2,30.17,SSW,200,0.0,0.0,75,0.00,,,0.00,Wunderground v.1.13,2013-01-24 03:45:00,
2013-01-23 22:50:00,-3.6,-9.5,30.16,South,169,0.0,0.0,75,0.00,,,0.00,Wunderground v.1.13,2013-01-24 03:50:00,
2013-01-23 22:55:00,-3.7,-9.6,30.16,South,169,0.0,0.0,75,0.00,,,0.00,Wunderground v.1.13,2013-01-24 03:55:00,
2013-01-23 23:00:00,-3.7,-9.4,30.16,South,169,0.0,0.0,76,0.00,,,0.00,Wunderground v.1.13,2013-01-24 04:00:00,
2013-01-23 23:05:00,-3.8,-9.2,30.17,South,169,0.0,0.0,77,0.00,,,0.00,Wunderground v.1.13,2013-01-24 04:05:00,
2013-01-23 23:10:00,-4.0,-9.4,30.17,South,169,0.0,0.0,77,0.00,,,0.00,Wunderground v.1.13,2013-01-24 04:10:00,
2013-01-23 23:15:00,-4.3,-10.0,30.17,South,169,0.0,0.0,76,0.00,,,0.00,Wunderground v.1.13,2013-01-24 04:15:00,
2013-01-23 23:20:00,-4.4,-9.8,30.17,South,169,0.0,1.0,77,0.00,,,0.00,Wunderground v.1.13,2013-01-24 04:20:00,
2013-01-23 23:25:00,-4.6,-9.7,30.16,South,169,0.0,0.0,78,0.00,,,0.00,Wunderground v.1.13,2013-01-24 04:25:00,
2013-01-23 23:30:00,-4.9,-10.0,30.17,South,169,0.0,1.0,78,0.00,,,0.00,Wunderground v.1.13,2013-01-24 04:30:00,
2013-01-23 23:35:00,-5.1,-10.2,30.17,South,169,1.0,1.0,78,0.00,,,0.00,Wunderground v.1.13,2013-01-24 04:35:00,
2013-01-23 23:42:00,-5.4,-10.2,30.17,South,169,0.0,1.0,79,0.00,,,0.00,Wunderground v.1.13,2013-01-24 04:42:00,
2013-01-23 23:47:00,-5.5,-10.3,30.17,South,169,0.0,1.0,79,0.00,,,0.00,Wunderground v.1.13,2013-01-24 04:47:00,
2013-01-23 23:52:00,-5.7,-10.3,30.17,South,169,0.0,1.0,80,0.00,,,0.00,Wunderground v.1.13,2013-01-24 04:52:00,
2013-01-23 23:57:00,-5.9,-10.5,30.17,South,169,0.0,1.0,80,0.00,,,0.00,Wunderground v.1.13,2013-01-24 04:57:00,